Hourly Data Report for September 15, 2017

All times are specified in Local Standard Time (LST). Add 1 hour to adjust for Daylight Saving Time where and when it is observed.

RESOLUTE BAY A
NUNAVUT

74°43'01.000" N
94°58'10.000" W
67.70 m
2403498
71924
YRB

Download Data

Hourly Data (September 2017)
Hourly Data Report for September 15, 2017
Temp Definition
°C
Dew Point Temp Definition
°C
Rel Hum Definition
%
Wind Dir Definition
10's deg

Wind Spd Definition
km/h
Visibility Definition
km
Stn Press Definition
kPa
Hmdx Definition


Wind Chill Definition


Weather Definition


TIME
00:00 Legend Double Dagger -2.3 -3.1 94 16 26 14.5 100.18   -9 Snow
01:00 Legend Double Dagger -3.2 -3.7 96 16 16 0.8 100.14   -9 Snow,Freezing Fog
02:00 Legend Double Dagger -3.5 -4.0 96 16 23 2.4 100.09   -10 Snow,Fog
03:00 Legend Double Dagger -3.9 -4.5 96 16 25 4.8 100.06   -11 Snow,Fog
04:00 Legend Double Dagger -3.5 -4.0 96 16 24 0.8 100.01   -10 Snow,Freezing Fog
05:00 Legend Double Dagger -2.9 -3.4 96 18 34 0.8 99.95   -11 Snow,Freezing Fog
06:00 Legend Double Dagger -2.7 -3.2 96 17 28 0.8 99.92   -10 Freezing Fog
07:00 Legend Double Dagger -2.5 -3.0 96 16 28 4.0 99.89   -10 Fog
08:00 Legend Double Dagger -2.2 -2.7 96 17 34 24.1 99.84   -10 LegendNANA
09:00 Legend Double Dagger -2.0 -2.5 96 19 32 24.1 99.76   -9 Snow
10:00 Legend Double Dagger -1.9 -2.4 96 19 35 24.1 99.73   -9 Snow Showers
11:00 Legend Double Dagger -1.8 -2.3 96 19 39 0.8 99.68   -10 Snow
12:00 Legend Double Dagger -1.6 -2.1 97 19 36 6.4 99.66   -9 Snow
13:00 Legend Double Dagger -1.4 -1.9 97 20 36 11.3 99.60   -9 Snow,Blowing Snow
14:00 Legend Double Dagger -1.2 -1.7 97 21 36 24.1 99.60   -9 Snow,Blowing Snow
15:00 Legend Double Dagger -0.9 -1.4 97 22 29 16.1 99.59   -8 Snow Showers
16:00 Legend Double Dagger -0.8 -1.2 97 25 27 0.4 99.60   -7 Freezing Drizzle,Freezing Fog
17:00 Legend Double Dagger -0.8 -1.2 97 29 24 0.4 99.64   -7 Freezing Drizzle,Freezing Fog
18:00 Legend Double Dagger -1.1 -1.6 96 31 28 24.1 99.70   -8 Snow
19:00 Legend Double Dagger -2.3 -3.2 93 32 30 24.1 99.77   -9 Snow
20:00 Legend Double Dagger -4.3 -5.1 94 33 35 8.1 99.85   -13 Snow
21:00 Legend Double Dagger -5.3 -7.2 87 33 38 24.1 99.94   -14 Cloudy
22:00 Legend Double Dagger -6.0 -7.5 89 33 30 24.1 99.98   -14 LegendNANA
23:00 Legend Double Dagger -7.2 -9.4 85 33 19 24.1 100.04   -14 LegendNANA

Notes on Data Quality.

Legend

  • E = Estimated
  • M = Missing
  • NA = Not Available
  • ‡ = Partner data that is not subject to review by the National Climate Archives
Date modified: